Year,Month,Day,Hour,Minute,Value (Times are PST for windspeed in km/hr)
2019,02,11,00,00,2.60
2019,02,11,00,01,3.50
2019,02,11,00,02,6.60
2019,02,11,00,03,4.20
2019,02,11,00,04,3.90
2019,02,11,00,05,3.80
2019,02,11,00,06,5.00
2019,02,11,00,07,6.60
2019,02,11,00,08,7.40
2019,02,11,00,09,6.70
2019,02,11,00,10,4.60
2019,02,11,00,11,3.90
2019,02,11,00,12,5.60
2019,02,11,00,13,3.50
2019,02,11,00,14,6.50
2019,02,11,00,15,5.40
2019,02,11,00,16,6.80
2019,02,11,00,17,4.80
2019,02,11,00,18,2.00
2019,02,11,00,19,1.00
2019,02,11,00,20,2.80
2019,02,11,00,21,1.50
2019,02,11,00,22,1.80
2019,02,11,00,23,1.50
2019,02,11,00,24,5.10
2019,02,11,00,25,5.60
2019,02,11,00,26,6.30
2019,02,11,00,27,1.60
2019,02,11,00,28,1.80
2019,02,11,00,29,3.00
2019,02,11,00,30,7.70
2019,02,11,00,31,5.90
2019,02,11,00,32,5.30
2019,02,11,00,33,5.20
2019,02,11,00,34,4.90
2019,02,11,00,35,5.70
2019,02,11,00,36,2.40
2019,02,11,00,37,4.20
2019,02,11,00,38,2.60
2019,02,11,00,39,2.90
2019,02,11,00,40,1.00
2019,02,11,00,41,2.50
2019,02,11,00,42,2.80
2019,02,11,00,43,3.10
2019,02,11,00,44,3.80
2019,02,11,00,45,6.80
2019,02,11,00,46,8.30
2019,02,11,00,47,5.10
2019,02,11,00,48,3.90
2019,02,11,00,49,3.30
2019,02,11,00,50,5.10
2019,02,11,00,51,3.70
2019,02,11,00,52,2.00
2019,02,11,00,53,7.80
2019,02,11,00,54,3.10
2019,02,11,00,55,3.80
2019,02,11,00,56,2.10
2019,02,11,00,57,1.50
2019,02,11,00,58,2.60
2019,02,11,00,59,7.70
2019,02,11,01,00,5.50
2019,02,11,01,01,3.10
2019,02,11,01,02,4.80
2019,02,11,01,03,4.70
2019,02,11,01,04,4.30
2019,02,11,01,05,1.80
2019,02,11,01,06,2.80
2019,02,11,01,07,3.80
2019,02,11,01,08,3.30
2019,02,11,01,09,2.90
2019,02,11,01,10,2.80
2019,02,11,01,11,4.10
2019,02,11,01,12,3.00
2019,02,11,01,13,4.50
2019,02,11,01,14,2.10
2019,02,11,01,15,3.70
2019,02,11,01,16,2.80
2019,02,11,01,17,2.60
2019,02,11,01,18,3.00
2019,02,11,01,19,6.40
2019,02,11,01,20,4.20
2019,02,11,01,21,3.40
2019,02,11,01,22,4.00
2019,02,11,01,23,2.90
2019,02,11,01,24,3.40
2019,02,11,01,25,6.80
2019,02,11,01,26,1.70
2019,02,11,01,27,2.60
2019,02,11,01,28,2.60
2019,02,11,01,29,2.90
2019,02,11,01,30,2.90
2019,02,11,01,31,1.70
2019,02,11,01,32,2.10
2019,02,11,01,33,1.60
2019,02,11,01,34,2.80
2019,02,11,01,35,3.70
2019,02,11,01,36,2.60
2019,02,11,01,37,1.80
2019,02,11,01,38,1.60
2019,02,11,01,39,2.00
2019,02,11,01,40,1.10
2019,02,11,01,41,1.00
2019,02,11,01,42,3.90
2019,02,11,01,43,1.80
2019,02,11,01,44,4.60
2019,02,11,01,45,5.30
2019,02,11,01,46,7.10
2019,02,11,01,47,4.30
2019,02,11,01,48,4.10
2019,02,11,01,49,4.50
2019,02,11,01,50,4.80
2019,02,11,01,51,1.80
2019,02,11,01,52,3.50
2019,02,11,01,53,3.90
2019,02,11,01,54,5.50
2019,02,11,01,55,3.60
2019,02,11,01,56,2.40
2019,02,11,01,57,4.70
2019,02,11,01,58,4.70
2019,02,11,01,59,5.40
2019,02,11,02,00,4.30
2019,02,11,02,01,3.10
2019,02,11,02,02,2.90
2019,02,11,02,03,7.50
2019,02,11,02,04,5.90
2019,02,11,02,05,3.40
2019,02,11,02,06,3.10
2019,02,11,02,07,4.70
2019,02,11,02,08,5.20
2019,02,11,02,09,5.40
2019,02,11,02,10,3.50
2019,02,11,02,11,3.40
2019,02,11,02,12,3.40
2019,02,11,02,13,4.70
2019,02,11,02,14,3.80
2019,02,11,02,15,5.50
2019,02,11,02,16,3.50
2019,02,11,02,17,3.90
2019,02,11,02,18,3.70
2019,02,11,02,19,1.80
2019,02,11,02,20,2.40
2019,02,11,02,21,1.20
2019,02,11,02,22,0.00
2019,02,11,02,23,3.10
2019,02,11,02,24,2.60
2019,02,11,02,25,1.40
2019,02,11,02,26,2.30
2019,02,11,02,27,2.30
2019,02,11,02,28,2.20
2019,02,11,02,29,4.00
2019,02,11,02,30,3.50
2019,02,11,02,31,3.40
2019,02,11,02,32,7.40
2019,02,11,02,33,9.70
2019,02,11,02,34,8.90
2019,02,11,02,35,5.70
2019,02,11,02,36,5.00
2019,02,11,02,37,8.10
2019,02,11,02,38,7.50
2019,02,11,02,39,4.70
2019,02,11,02,40,5.50
2019,02,11,02,41,4.90
2019,02,11,02,42,6.40
2019,02,11,02,43,4.90
2019,02,11,02,44,3.40
2019,02,11,02,45,3.20
2019,02,11,02,46,4.40
2019,02,11,02,47,4.70
2019,02,11,02,48,5.20
2019,02,11,02,49,6.00
2019,02,11,02,50,7.60
2019,02,11,02,51,6.20
2019,02,11,02,52,5.10
2019,02,11,02,53,3.60
2019,02,11,02,54,4.70
2019,02,11,02,55,2.60
2019,02,11,02,56,4.80
2019,02,11,02,57,7.40
2019,02,11,02,58,3.40
2019,02,11,02,59,8.10
2019,02,11,03,00,6.40
2019,02,11,03,01,5.60
2019,02,11,03,02,5.40
2019,02,11,03,03,4.20
2019,02,11,03,04,4.70
2019,02,11,03,05,4.80
2019,02,11,03,06,4.30
2019,02,11,03,07,5.00
2019,02,11,03,08,2.70
2019,02,11,03,09,4.30
2019,02,11,03,10,4.50
2019,02,11,03,11,3.90
2019,02,11,03,12,4.10
2019,02,11,03,13,4.80
2019,02,11,03,14,2.80
2019,02,11,03,15,2.90
2019,02,11,03,16,3.80
2019,02,11,03,17,2.90
2019,02,11,03,18,2.60
2019,02,11,03,19,3.30
2019,02,11,03,20,3.60
2019,02,11,03,21,2.50
2019,02,11,03,22,1.20
2019,02,11,03,23,2.80
2019,02,11,03,24,4.20
2019,02,11,03,25,1.90
2019,02,11,03,26,2.60
2019,02,11,03,27,5.60
2019,02,11,03,28,4.30
2019,02,11,03,29,4.20
2019,02,11,03,30,4.50
2019,02,11,03,31,6.10
2019,02,11,03,32,3.60
2019,02,11,03,33,2.50
2019,02,11,03,34,6.40
2019,02,11,03,35,3.10
2019,02,11,03,36,2.50
2019,02,11,03,37,3.60
2019,02,11,03,38,5.60
2019,02,11,03,39,5.20
2019,02,11,03,40,4.50
2019,02,11,03,41,6.20
2019,02,11,03,42,3.70
2019,02,11,03,43,3.00
2019,02,11,03,44,4.10
2019,02,11,03,45,5.20
2019,02,11,03,46,3.80
2019,02,11,03,47,5.10
2019,02,11,03,48,4.80
2019,02,11,03,49,4.20
2019,02,11,03,50,2.20
2019,02,11,03,51,1.80
2019,02,11,03,52,2.70
2019,02,11,03,53,5.10
2019,02,11,03,54,5.10
2019,02,11,03,55,3.50
2019,02,11,03,56,3.60
2019,02,11,03,57,2.80
2019,02,11,03,58,2.50
2019,02,11,03,59,2.60
2019,02,11,04,00,2.40
2019,02,11,04,01,2.70
2019,02,11,04,02,1.60
2019,02,11,04,03,0.90
2019,02,11,04,04,1.10
2019,02,11,04,05,2.10
2019,02,11,04,06,0.80
2019,02,11,04,07,2.00
2019,02,11,04,08,2.30
2019,02,11,04,09,1.50
2019,02,11,04,10,0.90
2019,02,11,04,11,1.50
2019,02,11,04,12,0.40
2019,02,11,04,13,0.00
2019,02,11,04,14,0.00
2019,02,11,04,15,0.00
2019,02,11,04,16,0.00
2019,02,11,04,17,0.00
2019,02,11,04,18,0.00
2019,02,11,04,19,0.00
2019,02,11,04,20,0.00
2019,02,11,04,21,0.00
2019,02,11,04,22,0.00
2019,02,11,04,23,0.00
2019,02,11,04,24,0.00
2019,02,11,04,25,0.00
2019,02,11,04,26,0.00
2019,02,11,04,27,0.00
2019,02,11,04,28,0.00
2019,02,11,04,29,0.00
2019,02,11,04,30,0.00
2019,02,11,04,31,0.00
2019,02,11,04,32,0.00
2019,02,11,04,33,0.00
2019,02,11,04,34,0.00
2019,02,11,04,35,0.10
2019,02,11,04,36,0.20
2019,02,11,04,37,0.80
2019,02,11,04,38,0.00
2019,02,11,04,39,0.00
2019,02,11,04,40,0.60
2019,02,11,04,41,2.90
2019,02,11,04,42,2.40
2019,02,11,04,43,2.00
2019,02,11,04,44,5.40
2019,02,11,04,45,3.50
2019,02,11,04,46,3.10
2019,02,11,04,47,4.60
2019,02,11,04,48,4.30
2019,02,11,04,49,9.70
2019,02,11,04,50,6.70
2019,02,11,04,51,6.70
2019,02,11,04,52,7.10
2019,02,11,04,53,3.00
2019,02,11,04,54,4.90
2019,02,11,04,55,3.70
2019,02,11,04,56,6.70
2019,02,11,04,57,7.90
2019,02,11,04,58,6.90
2019,02,11,04,59,7.10
2019,02,11,05,00,7.00
2019,02,11,05,01,5.10
2019,02,11,05,02,6.70
2019,02,11,05,03,5.30
2019,02,11,05,04,9.90
2019,02,11,05,05,4.40
2019,02,11,05,06,5.10
2019,02,11,05,07,5.40
2019,02,11,05,08,8.20
2019,02,11,05,09,5.40
2019,02,11,05,10,5.60
2019,02,11,05,11,9.60
2019,02,11,05,12,7.00
2019,02,11,05,13,8.10
2019,02,11,05,14,8.10
2019,02,11,05,15,9.20
2019,02,11,05,16,6.00
2019,02,11,05,17,8.90
2019,02,11,05,18,8.80
2019,02,11,05,19,7.40
2019,02,11,05,20,6.70
2019,02,11,05,21,10.90
2019,02,11,05,22,6.30
2019,02,11,05,23,4.40
2019,02,11,05,24,6.10
2019,02,11,05,25,5.90
2019,02,11,05,26,5.50
2019,02,11,05,27,5.10
2019,02,11,05,28,5.70
2019,02,11,05,29,5.90
2019,02,11,05,30,6.00
2019,02,11,05,31,3.90
2019,02,11,05,32,4.50
2019,02,11,05,33,4.90
2019,02,11,05,34,5.20
2019,02,11,05,35,2.20
2019,02,11,05,36,2.70
2019,02,11,05,37,5.60
2019,02,11,05,38,3.80
2019,02,11,05,39,3.30
2019,02,11,05,40,3.40
2019,02,11,05,41,3.20
2019,02,11,05,42,5.60
2019,02,11,05,43,2.90
2019,02,11,05,44,4.40
2019,02,11,05,45,4.30
2019,02,11,05,46,3.40
2019,02,11,05,47,6.10
2019,02,11,05,48,2.60
2019,02,11,05,49,1.00
2019,02,11,05,50,1.30
2019,02,11,05,51,1.50
2019,02,11,05,52,2.50
2019,02,11,05,53,3.10
2019,02,11,05,54,1.20
2019,02,11,05,55,2.20
2019,02,11,05,56,2.60
2019,02,11,05,57,4.20
2019,02,11,05,58,2.40
2019,02,11,05,59,3.20
2019,02,11,06,00,3.10
2019,02,11,06,01,2.30
2019,02,11,06,02,1.90
2019,02,11,06,03,3.70
2019,02,11,06,04,2.30
2019,02,11,06,05,2.40
2019,02,11,06,06,1.30
2019,02,11,06,07,2.80
2019,02,11,06,08,3.50
2019,02,11,06,09,2.60
2019,02,11,06,10,2.10
2019,02,11,06,11,2.30
2019,02,11,06,12,0.50
2019,02,11,06,13,2.80
2019,02,11,06,14,2.90
2019,02,11,06,15,0.80
2019,02,11,06,16,0.30
2019,02,11,06,17,1.10
2019,02,11,06,18,0.10
2019,02,11,06,19,0.60
2019,02,11,06,20,0.00
2019,02,11,06,21,0.50
2019,02,11,06,22,2.60
2019,02,11,06,23,2.50
2019,02,11,06,24,2.50
2019,02,11,06,25,1.90
2019,02,11,06,26,1.50
2019,02,11,06,27,2.40
2019,02,11,06,28,1.20
2019,02,11,06,29,1.20
2019,02,11,06,30,0.70
2019,02,11,06,31,0.50
2019,02,11,06,32,3.50
2019,02,11,06,33,2.90
2019,02,11,06,34,1.40
2019,02,11,06,35,0.10
2019,02,11,06,36,0.00
2019,02,11,06,37,0.00
2019,02,11,06,38,0.00
2019,02,11,06,39,0.00
2019,02,11,06,40,0.00
2019,02,11,06,41,0.00
2019,02,11,06,42,0.00
2019,02,11,06,43,0.10
2019,02,11,06,44,0.10
2019,02,11,06,45,0.40
2019,02,11,06,46,0.60
2019,02,11,06,47,0.90
2019,02,11,06,48,1.90
2019,02,11,06,49,1.70
2019,02,11,06,50,1.30
2019,02,11,06,51,1.00
2019,02,11,06,52,1.20
2019,02,11,06,53,2.40
2019,02,11,06,54,0.30
2019,02,11,06,55,1.80
2019,02,11,06,56,0.20
2019,02,11,06,57,1.30
2019,02,11,06,58,0.10
2019,02,11,06,59,2.40
2019,02,11,07,00,1.90
2019,02,11,07,01,0.80
2019,02,11,07,02,2.60
2019,02,11,07,03,1.40
2019,02,11,07,04,0.80
2019,02,11,07,05,1.40
2019,02,11,07,06,0.50
2019,02,11,07,07,0.10
2019,02,11,07,08,0.60
2019,02,11,07,09,0.60
2019,02,11,07,10,0.50
2019,02,11,07,11,0.80
2019,02,11,07,12,0.30
2019,02,11,07,13,0.00
2019,02,11,07,14,0.00
2019,02,11,07,15,0.00
2019,02,11,07,16,0.00
2019,02,11,07,17,0.00
2019,02,11,07,18,0.00
2019,02,11,07,19,0.00
2019,02,11,07,20,0.50
2019,02,11,07,21,0.70
2019,02,11,07,22,0.30
2019,02,11,07,23,0.60
2019,02,11,07,24,0.20
2019,02,11,07,25,0.00
2019,02,11,07,26,0.00
2019,02,11,07,27,0.10
2019,02,11,07,28,0.00
2019,02,11,07,29,0.10
2019,02,11,07,30,1.10
2019,02,11,07,31,3.00
2019,02,11,07,32,1.00
2019,02,11,07,33,0.70
2019,02,11,07,34,1.10
2019,02,11,07,35,2.80
2019,02,11,07,36,2.30
2019,02,11,07,37,3.60
2019,02,11,07,38,2.10
2019,02,11,07,39,2.10
2019,02,11,07,40,1.20
2019,02,11,07,41,1.90
2019,02,11,07,42,2.40
2019,02,11,07,43,5.10
2019,02,11,07,44,4.00
2019,02,11,07,45,4.20
2019,02,11,07,46,3.60
2019,02,11,07,47,3.40
2019,02,11,07,48,4.00
2019,02,11,07,49,5.00
2019,02,11,07,50,3.60
2019,02,11,07,51,5.20
2019,02,11,07,52,3.80
2019,02,11,07,53,1.90
2019,02,11,07,54,3.30
2019,02,11,07,55,2.40
2019,02,11,07,56,2.10
2019,02,11,07,57,1.30
2019,02,11,07,58,2.60
2019,02,11,07,59,3.30
2019,02,11,08,00,4.00
2019,02,11,08,01,2.30
2019,02,11,08,02,3.10
2019,02,11,08,03,3.80
2019,02,11,08,04,4.10
2019,02,11,08,05,2.30
2019,02,11,08,06,4.40
2019,02,11,08,07,3.90
2019,02,11,08,08,4.80
2019,02,11,08,09,3.30
2019,02,11,08,10,3.10
2019,02,11,08,11,3.80
2019,02,11,08,12,2.80
2019,02,11,08,13,3.50
2019,02,11,08,14,4.30
2019,02,11,08,15,4.20
2019,02,11,08,16,2.30
2019,02,11,08,17,2.70
2019,02,11,08,18,2.50
2019,02,11,08,19,4.20
2019,02,11,08,20,4.30
2019,02,11,08,21,3.10
2019,02,11,08,22,3.20
2019,02,11,08,23,5.20
2019,02,11,08,24,3.00
2019,02,11,08,25,4.20
2019,02,11,08,26,3.10
2019,02,11,08,27,3.10
2019,02,11,08,28,3.10
2019,02,11,08,29,4.00
2019,02,11,08,30,4.20
2019,02,11,08,31,3.40
2019,02,11,08,32,3.40
2019,02,11,08,33,5.00
2019,02,11,08,34,2.70
2019,02,11,08,35,4.90
2019,02,11,08,36,3.60
2019,02,11,08,37,2.30
2019,02,11,08,38,3.80
2019,02,11,08,39,4.00
2019,02,11,08,40,1.70
2019,02,11,08,41,3.50
2019,02,11,08,42,3.00
2019,02,11,08,43,3.50
2019,02,11,08,44,5.10
2019,02,11,08,45,5.40
2019,02,11,08,46,4.30
2019,02,11,08,47,5.90
2019,02,11,08,48,4.90
2019,02,11,08,49,6.40
2019,02,11,08,50,3.40
2019,02,11,08,51,4.10
2019,02,11,08,52,4.30
2019,02,11,08,53,5.00
2019,02,11,08,54,4.80
2019,02,11,08,55,2.60
2019,02,11,08,56,3.80
2019,02,11,08,57,5.50
2019,02,11,08,58,5.80
2019,02,11,08,59,3.70
2019,02,11,09,00,8.80
2019,02,11,09,01,6.60
2019,02,11,09,02,7.50
2019,02,11,09,03,5.60
2019,02,11,09,04,6.10
2019,02,11,09,05,5.60
2019,02,11,09,06,5.00
2019,02,11,09,07,3.50
2019,02,11,09,08,5.40
2019,02,11,09,09,4.40
2019,02,11,09,10,5.50
2019,02,11,09,11,6.00
2019,02,11,09,12,4.30
2019,02,11,09,13,6.10
2019,02,11,09,14,5.70
2019,02,11,09,15,4.30
2019,02,11,09,16,4.40
2019,02,11,09,17,3.60
2019,02,11,09,18,2.90
2019,02,11,09,19,5.00
2019,02,11,09,20,5.90
2019,02,11,09,21,4.70
2019,02,11,09,22,5.80
2019,02,11,09,23,4.70
2019,02,11,09,24,4.00
2019,02,11,09,25,4.60
2019,02,11,09,26,3.10
2019,02,11,09,27,5.10
2019,02,11,09,28,4.10
2019,02,11,09,29,5.40
2019,02,11,09,30,4.50
2019,02,11,09,31,4.30
2019,02,11,09,32,6.30
2019,02,11,09,33,4.20
2019,02,11,09,34,3.50
2019,02,11,09,35,3.60
2019,02,11,09,36,4.20
2019,02,11,09,37,6.60
2019,02,11,09,38,5.70
2019,02,11,09,39,5.10
2019,02,11,09,40,6.50
2019,02,11,09,41,7.00
2019,02,11,09,42,5.70
2019,02,11,09,43,6.70
2019,02,11,09,44,5.70
2019,02,11,09,45,8.70
2019,02,11,09,46,7.10
2019,02,11,09,47,4.20
2019,02,11,09,48,3.00
2019,02,11,09,49,6.30
2019,02,11,09,50,5.30
2019,02,11,09,51,4.90
2019,02,11,09,52,5.20
2019,02,11,09,53,5.40
2019,02,11,09,54,7.30
2019,02,11,09,55,7.00
2019,02,11,09,56,6.40
2019,02,11,09,57,6.30
2019,02,11,09,58,4.60
2019,02,11,09,59,4.20
2019,02,11,10,00,7.00
2019,02,11,10,01,7.00
2019,02,11,10,02,4.20
2019,02,11,10,03,7.30
2019,02,11,10,04,4.80
2019,02,11,10,05,6.20
2019,02,11,10,06,8.20
2019,02,11,10,07,4.40
2019,02,11,10,08,5.80
2019,02,11,10,09,6.80
2019,02,11,10,10,6.10
2019,02,11,10,11,5.50
2019,02,11,10,12,6.40
2019,02,11,10,13,5.10
2019,02,11,10,14,5.30
2019,02,11,10,15,8.70
2019,02,11,10,16,6.00
2019,02,11,10,17,10.70
2019,02,11,10,18,7.90
2019,02,11,10,19,3.10
2019,02,11,10,20,5.10
2019,02,11,10,21,8.40
2019,02,11,10,22,10.00
2019,02,11,10,23,8.30
2019,02,11,10,24,7.90
2019,02,11,10,25,7.50
2019,02,11,10,26,11.90
2019,02,11,10,27,11.80
2019,02,11,10,28,13.20
2019,02,11,10,29,7.90
2019,02,11,10,30,7.40
2019,02,11,10,31,12.10
2019,02,11,10,32,7.40
2019,02,11,10,33,11.50
2019,02,11,10,34,9.80
2019,02,11,10,35,12.20
2019,02,11,10,36,9.70
2019,02,11,10,37,8.70
2019,02,11,10,38,9.70
2019,02,11,10,39,9.80
2019,02,11,10,40,9.90
2019,02,11,10,41,8.50
2019,02,11,10,42,8.40
2019,02,11,10,43,11.70
2019,02,11,10,44,13.40
2019,02,11,10,45,10.50
2019,02,11,10,46,8.90
2019,02,11,10,47,6.90
2019,02,11,10,48,8.80
2019,02,11,10,49,10.40
2019,02,11,10,50,10.60
2019,02,11,10,51,10.30
2019,02,11,10,52,9.10
2019,02,11,10,53,6.80
2019,02,11,10,54,10.90
2019,02,11,10,55,13.20
2019,02,11,10,56,10.20
2019,02,11,10,57,9.90
2019,02,11,10,58,12.30
2019,02,11,10,59,11.00
2019,02,11,11,00,10.90
2019,02,11,11,01,12.00
2019,02,11,11,02,16.10
2019,02,11,11,03,8.00
2019,02,11,11,04,7.80
2019,02,11,11,05,10.70
2019,02,11,11,06,11.00
2019,02,11,11,07,8.50
2019,02,11,11,08,6.10
2019,02,11,11,09,13.80
2019,02,11,11,10,9.30
2019,02,11,11,11,7.40
2019,02,11,11,12,16.20
2019,02,11,11,13,11.20
2019,02,11,11,14,13.80
2019,02,11,11,15,13.40
2019,02,11,11,16,8.70
2019,02,11,11,17,7.10
2019,02,11,11,18,5.70
2019,02,11,11,19,8.10
2019,02,11,11,20,9.70
2019,02,11,11,21,8.20
2019,02,11,11,22,8.60
2019,02,11,11,23,7.70
2019,02,11,11,24,9.40
2019,02,11,11,25,8.70
2019,02,11,11,26,7.80
2019,02,11,11,27,11.50
2019,02,11,11,28,13.30
2019,02,11,11,29,13.70
2019,02,11,11,30,9.50
2019,02,11,11,31,13.50
2019,02,11,11,32,12.00
2019,02,11,11,33,14.30
2019,02,11,11,34,10.90
2019,02,11,11,35,8.10
2019,02,11,11,36,9.70
2019,02,11,11,37,8.30
2019,02,11,11,38,9.00
2019,02,11,11,39,12.60
2019,02,11,11,40,17.50
2019,02,11,11,41,14.60
2019,02,11,11,42,13.70
2019,02,11,11,43,12.70
2019,02,11,11,44,15.10
2019,02,11,11,45,13.00
2019,02,11,11,46,14.30
2019,02,11,11,47,17.30
2019,02,11,11,48,12.50
2019,02,11,11,49,8.10
2019,02,11,11,50,8.50
2019,02,11,11,51,9.80
2019,02,11,11,52,8.80
2019,02,11,11,53,15.30
2019,02,11,11,54,13.90
2019,02,11,11,55,14.50
2019,02,11,11,56,10.90
2019,02,11,11,57,9.10
2019,02,11,11,58,8.80
2019,02,11,11,59,11.90
2019,02,11,12,00,10.20
2019,02,11,12,01,6.30
2019,02,11,12,02,15.60
2019,02,11,12,03,15.20
2019,02,11,12,04,18.90
2019,02,11,12,05,20.40
2019,02,11,12,06,15.90
2019,02,11,12,07,14.80
2019,02,11,12,08,13.40
2019,02,11,12,09,14.70
2019,02,11,12,10,15.60
2019,02,11,12,11,11.40
2019,02,11,12,12,10.30
2019,02,11,12,13,15.50
2019,02,11,12,14,12.30
2019,02,11,12,15,12.30
2019,02,11,12,16,14.80
2019,02,11,12,17,11.90
2019,02,11,12,18,10.00
2019,02,11,12,19,8.20
2019,02,11,12,20,10.30
2019,02,11,12,21,10.70
2019,02,11,12,22,12.60
2019,02,11,12,23,20.40
2019,02,11,12,24,12.90
2019,02,11,12,25,13.50
2019,02,11,12,26,15.40
2019,02,11,12,27,19.50
2019,02,11,12,28,17.20
2019,02,11,12,29,14.80
2019,02,11,12,30,16.10
2019,02,11,12,31,13.30
2019,02,11,12,32,11.90
2019,02,11,12,33,12.40
2019,02,11,12,34,13.00
2019,02,11,12,35,17.50
2019,02,11,12,36,12.10
2019,02,11,12,37,13.20
2019,02,11,12,38,9.10
2019,02,11,12,39,10.20
2019,02,11,12,40,10.10
2019,02,11,12,41,10.60
2019,02,11,12,42,15.30
2019,02,11,12,43,8.00
2019,02,11,12,44,7.20
2019,02,11,12,45,13.00
2019,02,11,12,46,9.70
2019,02,11,12,47,14.20
2019,02,11,12,48,17.60
2019,02,11,12,49,13.80
2019,02,11,12,50,9.50
2019,02,11,12,51,11.70
2019,02,11,12,52,13.50
2019,02,11,12,53,14.00
2019,02,11,12,54,15.60
2019,02,11,12,55,16.20
2019,02,11,12,56,13.30
2019,02,11,12,57,15.00
2019,02,11,12,58,17.40
2019,02,11,12,59,18.70
2019,02,11,13,00,11.70
2019,02,11,13,01,14.90
2019,02,11,13,02,15.00
2019,02,11,13,03,14.60
2019,02,11,13,04,11.30
2019,02,11,13,05,13.20
2019,02,11,13,06,17.40
2019,02,11,13,07,11.60
2019,02,11,13,08,13.50
2019,02,11,13,09,11.40
2019,02,11,13,10,10.00
2019,02,11,13,11,10.50
2019,02,11,13,12,13.80
2019,02,11,13,13,12.10
2019,02,11,13,14,19.00
2019,02,11,13,15,13.40
2019,02,11,13,16,16.10
2019,02,11,13,17,15.00
2019,02,11,13,18,14.90
2019,02,11,13,19,13.30
2019,02,11,13,20,10.60
2019,02,11,13,21,14.30
2019,02,11,13,22,14.10
2019,02,11,13,23,15.90
2019,02,11,13,24,11.20
2019,02,11,13,25,18.50
2019,02,11,13,26,13.50
2019,02,11,13,27,12.60
2019,02,11,13,28,13.00
2019,02,11,13,29,12.70
2019,02,11,13,30,16.60
2019,02,11,13,31,19.00
2019,02,11,13,32,16.60
2019,02,11,13,33,13.50
2019,02,11,13,34,14.90
2019,02,11,13,35,14.90
2019,02,11,13,36,12.60
2019,02,11,13,37,14.30
2019,02,11,13,38,17.50
2019,02,11,13,39,12.50
2019,02,11,13,40,17.30
2019,02,11,13,41,16.20
2019,02,11,13,42,15.90
2019,02,11,13,43,14.50
2019,02,11,13,44,14.30
2019,02,11,13,45,8.70
2019,02,11,13,46,14.80
2019,02,11,13,47,10.20
2019,02,11,13,48,9.70
2019,02,11,13,49,18.60
2019,02,11,13,50,12.30
2019,02,11,13,51,14.90
2019,02,11,13,52,11.50
2019,02,11,13,53,12.50
2019,02,11,13,54,15.30
2019,02,11,13,55,11.80
2019,02,11,13,56,12.80
2019,02,11,13,57,13.60
2019,02,11,13,58,15.60
2019,02,11,13,59,15.10
2019,02,11,14,00,9.40
2019,02,11,14,01,7.70
2019,02,11,14,02,13.90
2019,02,11,14,03,17.50
2019,02,11,14,04,13.20
2019,02,11,14,05,18.20
2019,02,11,14,06,17.80
2019,02,11,14,07,13.50
2019,02,11,14,08,19.50
2019,02,11,14,09,18.80
2019,02,11,14,10,15.10
2019,02,11,14,11,12.00
2019,02,11,14,12,9.80
2019,02,11,14,13,12.20
2019,02,11,14,14,10.30
2019,02,11,14,15,15.50
2019,02,11,14,16,14.60
2019,02,11,14,17,14.30
2019,02,11,14,18,13.60
2019,02,11,14,19,14.90
2019,02,11,14,20,15.80
2019,02,11,14,21,14.20
2019,02,11,14,22,17.90
2019,02,11,14,23,16.50
2019,02,11,14,24,16.80
2019,02,11,14,25,14.60
2019,02,11,14,26,18.30
2019,02,11,14,27,21.00
2019,02,11,14,28,17.20
2019,02,11,14,29,9.70
2019,02,11,14,30,13.30
2019,02,11,14,31,11.90
2019,02,11,14,32,10.50
2019,02,11,14,33,10.10
2019,02,11,14,34,19.70
2019,02,11,14,35,11.00
2019,02,11,14,36,13.40
2019,02,11,14,37,16.20
2019,02,11,14,38,11.40
2019,02,11,14,39,11.80
2019,02,11,14,40,13.20
2019,02,11,14,41,9.80
2019,02,11,14,42,10.10
2019,02,11,14,43,10.20
2019,02,11,14,44,17.50
2019,02,11,14,45,11.30
2019,02,11,14,46,12.00
2019,02,11,14,47,15.00
2019,02,11,14,48,13.00
2019,02,11,14,49,14.60
2019,02,11,14,50,9.80
2019,02,11,14,51,9.40
2019,02,11,14,52,10.30
2019,02,11,14,53,12.10
2019,02,11,14,54,17.50
2019,02,11,14,55,15.40
2019,02,11,14,56,10.60
2019,02,11,14,57,16.30
2019,02,11,14,58,11.70
2019,02,11,14,59,13.10
2019,02,11,15,00,13.00
2019,02,11,15,01,5.70
2019,02,11,15,02,6.80
2019,02,11,15,03,9.00
2019,02,11,15,04,13.00
2019,02,11,15,05,15.20
2019,02,11,15,06,12.60
2019,02,11,15,07,14.20
2019,02,11,15,08,15.60
2019,02,11,15,09,15.60
2019,02,11,15,10,15.50
2019,02,11,15,11,13.70
2019,02,11,15,12,16.20
2019,02,11,15,13,8.70
2019,02,11,15,14,9.80
2019,02,11,15,15,10.60
2019,02,11,15,16,16.20
2019,02,11,15,17,11.20
2019,02,11,15,18,12.60
2019,02,11,15,19,18.10
2019,02,11,15,20,12.60
2019,02,11,15,21,9.30
2019,02,11,15,22,9.90
2019,02,11,15,23,6.40
2019,02,11,15,24,6.40
2019,02,11,15,25,6.40
2019,02,11,15,26,6.40
2019,02,11,15,27,11.30
2019,02,11,15,28,7.90
2019,02,11,15,29,11.50
2019,02,11,15,30,15.70
2019,02,11,15,31,10.20
2019,02,11,15,32,9.30
2019,02,11,15,33,12.00
2019,02,11,15,34,13.20
2019,02,11,15,35,6.50
2019,02,11,15,36,7.10
2019,02,11,15,37,6.50
2019,02,11,15,38,11.00
2019,02,11,15,39,11.80
2019,02,11,15,40,10.50
2019,02,11,15,41,10.70
2019,02,11,15,42,14.90
2019,02,11,15,43,12.80
2019,02,11,15,44,7.00
2019,02,11,15,45,6.50
2019,02,11,15,46,8.20
2019,02,11,15,47,8.20
2019,02,11,15,48,8.40
2019,02,11,15,49,4.80
2019,02,11,15,50,7.50
2019,02,11,15,51,15.30
2019,02,11,15,52,12.20
2019,02,11,15,53,12.30
2019,02,11,15,54,10.60
2019,02,11,15,55,12.30
2019,02,11,15,56,8.40
2019,02,11,15,57,15.00
2019,02,11,15,58,12.80
2019,02,11,15,59,12.40
2019,02,11,16,00,12.30
2019,02,11,16,01,11.40
2019,02,11,16,02,8.80
2019,02,11,16,03,8.60
2019,02,11,16,04,9.30
2019,02,11,16,05,9.00
2019,02,11,16,06,10.10
2019,02,11,16,07,9.30
2019,02,11,16,08,10.70
2019,02,11,16,09,16.10
2019,02,11,16,10,16.00
2019,02,11,16,11,9.90
2019,02,11,16,12,13.10
2019,02,11,16,13,14.00
2019,02,11,16,14,7.70
2019,02,11,16,15,8.10
2019,02,11,16,16,12.00
2019,02,11,16,17,14.60
2019,02,11,16,18,12.30
2019,02,11,16,19,11.40
2019,02,11,16,20,8.40
2019,02,11,16,21,12.90
2019,02,11,16,22,9.80
2019,02,11,16,23,11.10
2019,02,11,16,24,7.10
2019,02,11,16,25,7.50
2019,02,11,16,26,7.10
2019,02,11,16,27,10.50
2019,02,11,16,28,14.60
2019,02,11,16,29,13.60
2019,02,11,16,30,8.90
2019,02,11,16,31,9.80
2019,02,11,16,32,6.20
2019,02,11,16,33,10.90
2019,02,11,16,34,8.90
2019,02,11,16,35,11.50
2019,02,11,16,36,10.70
2019,02,11,16,37,8.90
2019,02,11,16,38,12.90
2019,02,11,16,39,13.80
2019,02,11,16,40,19.50
2019,02,11,16,41,15.60
2019,02,11,16,42,15.60
2019,02,11,16,43,18.50
2019,02,11,16,44,17.50
2019,02,11,16,45,12.10
2019,02,11,16,46,14.80
2019,02,11,16,47,21.10
2019,02,11,16,48,15.10
2019,02,11,16,49,14.20
2019,02,11,16,50,13.70
2019,02,11,16,51,19.80
2019,02,11,16,52,15.20
2019,02,11,16,53,20.40
2019,02,11,16,54,14.20
2019,02,11,16,55,17.20
2019,02,11,16,56,23.10
2019,02,11,16,57,13.20
2019,02,11,16,58,11.90
2019,02,11,16,59,12.00
2019,02,11,17,00,16.90
2019,02,11,17,01,15.10
2019,02,11,17,02,12.90
2019,02,11,17,03,11.50
2019,02,11,17,04,15.20
2019,02,11,17,05,10.00
2019,02,11,17,06,15.40
2019,02,11,17,07,16.20
2019,02,11,17,08,11.00
2019,02,11,17,09,11.60
2019,02,11,17,10,17.40
2019,02,11,17,11,21.10
2019,02,11,17,12,9.80
2019,02,11,17,13,14.30
2019,02,11,17,14,17.90
2019,02,11,17,15,16.20
2019,02,11,17,16,15.90
2019,02,11,17,17,12.70
2019,02,11,17,18,11.60
2019,02,11,17,19,12.00
2019,02,11,17,20,11.40
2019,02,11,17,21,7.60
2019,02,11,17,22,9.70
2019,02,11,17,23,12.80
2019,02,11,17,24,11.70
2019,02,11,17,25,10.00
2019,02,11,17,26,14.70
2019,02,11,17,27,15.10
2019,02,11,17,28,16.90
2019,02,11,17,29,12.80
2019,02,11,17,30,16.20
2019,02,11,17,31,8.80
2019,02,11,17,32,12.30
2019,02,11,17,33,14.20
2019,02,11,17,34,16.30
2019,02,11,17,35,17.30
2019,02,11,17,36,12.70
2019,02,11,17,37,16.10
2019,02,11,17,38,18.40
2019,02,11,17,39,16.30
2019,02,11,17,40,14.20
2019,02,11,17,41,7.90
2019,02,11,17,42,7.30
2019,02,11,17,43,8.00
2019,02,11,17,44,11.50
2019,02,11,17,45,12.60
2019,02,11,17,46,6.90
2019,02,11,17,47,9.60
2019,02,11,17,48,14.90
2019,02,11,17,49,11.40
2019,02,11,17,50,7.30
2019,02,11,17,51,8.10